GFSNIL_sfc_dewp_000.txt.gz
Dewpoint
24 24 22 20 20 19 18 18 16 15 14 14 14 15 16 18 19 17 20 17 19 22
20 20 19 17 17 17 16 15 13 13 13 13 13 14 14 17 16 17 18 18 19 19
16 16 15 14 13 12 12 11 12 12 12 13 14 14 14 16 17 16 18 17 16 17
14 13 12 11 11 11 11 11 11 12 13 14 14 14 15 15 16 15 16 16 19 20
13 12 11 11 11 11 11 12 12 13 15 15 16 16 16 16 16 16 16 17 21 23
12 12 11 12 12 13 13 13 14 15 15 16 18 17 17 17 16 16 16 19 21 23
12 12 12 14 14 14 14 14 15 15 16 17 17 17 17 17 17 18 20 22 23 23
15 14 15 15 15 15 15 15 14 14 15 16 15 13 20 20 20 19 20 21 22 22
16 16 16 15 14 14 14 13 14 15 15 16 13 24 25 23 18 17 17 19 21 21
16 16 15 13 12 12 11 13 15 15 15 15 14 24 25 26 18 17 18 21 22 21
15 13 13 12 11 11 12 14 16 16 15 15 13 23 25 27 20 19 20 21 21 22
14 13 12 11 10 11 13 15 15 15 14 13 13 21 24 24 20 20 20 20 21 22
12 11 10 9 11 13 15 15 16 13 13 17 11 20 24 24 20 20 20 21 22 27
10 9 9 11 13 13 13 13 13 12 12 11 13 17 24 25 21 21 21 23 25 24

GFSNIL_sfc_dewp_003.txt.gz
Dewpoint
29 29 26 25 23 20 18 18 16 15 13 13 13 15 15 18 18 16 18 16 17 20
23 23 21 19 18 18 17 15 13 12 12 13 14 14 14 17 16 17 17 18 18 17
18 17 17 16 15 14 12 11 11 12 13 14 14 15 15 17 18 16 18 17 16 17
15 14 13 11 11 11 11 11 12 13 14 14 15 15 16 16 16 16 17 17 18 20
13 12 11 11 11 12 11 12 13 14 15 15 16 17 16 16 17 17 17 17 20 22
12 12 12 12 12 13 13 14 14 15 15 16 18 17 16 16 17 18 18 19 20 21
13 13 13 14 14 15 14 14 14 15 16 17 17 16 16 19 19 19 19 20 22 22
15 15 16 16 15 15 15 14 15 16 16 16 15 13 21 21 20 18 17 18 20 21
17 17 17 15 14 14 13 14 16 16 16 16 13 23 26 25 22 18 17 18 20 21
17 17 15 13 12 12 13 15 16 16 16 15 15 23 25 26 21 20 20 20 21 20
17 15 14 12 11 12 13 15 16 16 15 15 13 23 25 26 21 20 20 21 21 20
15 13 13 11 11 13 15 15 15 15 14 13 14 23 25 24 21 20 20 20 21 21
13 12 11 11 13 14 15 14 14 13 14 18 14 22 25 24 21 21 21 21 22 28
11 11 13 14 14 14 13 14 14 14 14 14 16 19 25 26 22 21 22 22 20 22

GFSNIL_sfc_dewp_006.txt.gz
Dewpoint
30 28 26 26 23 20 18 18 15 14 13 13 14 15 16 19 18 16 18 16 17 19
29 27 25 22 19 19 17 15 13 12 13 13 14 15 15 18 16 17 17 18 18 18
22 21 19 17 16 14 12 12 12 12 13 14 15 15 15 17 17 16 18 18 17 17
17 16 14 13 12 11 12 11 13 14 14 15 15 16 16 16 16 17 18 18 19 19
14 12 12 11 11 12 12 13 14 14 15 16 16 16 15 16 18 18 18 19 20 20
13 12 12 12 13 14 14 14 14 15 16 16 17 16 15 17 19 19 19 19 19 20
13 13 13 14 14 15 14 14 15 16 16 17 16 15 15 20 20 19 19 19 20 20
15 16 16 16 15 15 15 15 16 16 16 15 14 12 21 23 22 19 19 19 19 20
18 18 17 15 14 14 15 16 16 16 15 15 13 23 26 25 23 20 19 19 20 21
18 17 15 13 13 14 14 15 15 15 15 14 14 23 26 26 22 20 20 21 21 21
17 15 14 12 13 14 14 15 15 14 14 14 14 24 25 26 22 21 21 21 21 21
15 14 13 12 13 14 14 14 14 14 14 14 15 24 25 25 21 21 21 21 21 22
13 12 12 14 13 14 13 14 14 14 15 19 15 23 25 24 22 21 21 22 23 26
12 14 14 13 13 13 13 14 14 15 16 16 18 20 25 26 22 21 21 19 22 23

GFSNIL_sfc_dewp_009.txt.gz
Dewpoint
28 27 26 25 23 21 20 19 18 16 16 16 17 18 19 21 21 20 21 20 20 20
27 27 27 24 22 20 19 16 15 16 16 16 17 17 18 19 18 19 20 20 20 20
27 26 24 21 19 18 15 14 15 15 16 17 17 17 17 17 18 18 20 20 19 19
24 22 19 17 15 14 13 14 14 15 15 16 16 16 16 16 18 19 20 20 21 20
19 17 15 13 13 13 13 15 15 15 16 16 16 15 14 17 19 20 20 20 21 20
15 14 13 13 13 14 14 15 15 16 16 15 16 14 13 17 20 21 20 20 19 18
14 14 14 15 15 15 14 16 16 16 16 16 14 14 14 20 22 22 21 21 20 19
16 16 16 16 15 16 17 17 16 15 15 15 14 12 22 24 23 23 21 21 20 20
18 18 17 15 16 17 17 17 16 15 14 15 12 23 26 25 23 23 21 20 20 21
18 16 15 14 16 16 16 15 15 14 14 13 14 24 26 26 22 22 22 22 22 21
16 14 14 14 15 15 15 14 13 13 14 14 15 25 25 26 22 22 22 23 22 22
14 13 14 15 14 14 13 13 13 13 14 15 18 24 25 25 22 21 22 22 22 23
13 14 14 14 13 13 13 13 14 15 16 19 16 23 25 24 21 21 21 22 22 25
14 14 13 13 13 13 14 14 14 16 17 17 18 19 25 25 21 21 22 20 22 21

GFSNIL_sfc_dewp_012.txt.gz
Dewpoint
33 35 29 29 27 25 24 22 21 19 18 17 18 19 20 22 22 22 21 22 21 21
33 34 30 29 28 25 23 19 19 18 17 17 17 18 19 20 18 19 21 21 21 21
32 30 29 27 25 23 19 17 18 17 17 17 17 17 18 18 18 18 20 20 21 20
29 27 25 24 22 20 17 16 15 15 15 15 15 16 16 16 17 19 20 21 22 22
27 25 23 20 18 16 15 15 15 14 15 15 15 15 13 15 18 20 20 21 23 22
25 23 19 17 15 15 15 15 15 16 16 15 16 14 13 14 18 20 21 21 21 19
22 19 17 16 16 16 15 16 16 16 16 16 14 14 14 19 21 21 22 22 22 20
19 18 17 17 16 16 17 17 16 15 15 15 14 12 21 23 23 22 21 20 20 19
19 18 19 17 17 18 18 17 16 15 15 15 11 22 26 26 22 21 20 19 18 19
18 18 17 17 17 18 17 16 15 14 14 13 14 23 26 26 22 21 20 21 22 20
17 16 16 16 16 15 14 14 14 14 13 14 13 23 25 26 21 20 20 22 21 20
15 15 16 16 15 14 13 13 13 14 13 13 13 20 25 25 20 19 19 19 19 21
14 15 16 15 13 14 14 14 13 14 13 15 13 18 24 24 20 19 18 18 19 24
15 14 13 13 12 13 13 13 12 12 13 14 15 16 23 25 21 19 19 18 19 20

GFSNIL_sfc_dewp_015.txt.gz
Dewpoint
45 43 37 32 28 28 28 28 27 25 24 23 22 22 23 24 25 23 25 25 25 24
42 36 34 31 29 29 28 26 24 23 21 20 20 20 20 21 20 21 23 24 25 24
36 33 32 30 29 28 25 23 22 21 20 20 19 18 18 20 19 19 22 22 22 22
35 35 29 29 27 24 21 21 20 19 18 17 17 17 16 17 18 19 20 22 24 23
31 29 29 25 23 21 20 19 18 17 17 16 16 15 14 15 16 18 20 21 26 25
27 26 25 22 19 20 18 17 17 17 17 16 17 15 14 13 15 18 20 21 21 21
26 23 21 19 19 19 18 18 18 17 17 16 14 15 14 18 20 22 23 23 23 21
25 22 21 20 19 19 20 18 18 17 16 15 14 12 21 23 23 22 21 21 20 20
22 22 22 20 20 21 19 18 17 16 15 15 12 22 25 26 23 21 20 19 18 20
21 21 21 20 20 20 18 17 16 14 13 13 15 22 25 26 23 21 20 23 23 21
21 20 20 19 19 17 16 15 13 13 13 15 15 20 24 26 22 19 20 23 20 20
19 19 19 18 16 15 13 13 12 13 14 13 12 18 23 25 20 18 19 19 19 20
18 18 18 17 14 14 14 14 14 14 13 13 13 16 21 23 20 19 18 19 19 23
17 16 14 13 12 12 13 15 12 13 11 12 13 15 19 23 21 20 20 20 20 21

GFSNIL_sfc_dewp_018.txt.gz
Dewpoint
44 39 38 37 33 30 28 28 28 27 28 26 25 26 26 26 26 23 24 22 24 25
43 40 38 39 31 29 28 26 26 25 23 23 22 22 22 24 22 21 22 22 23 24
40 38 36 31 28 28 26 26 23 22 22 21 20 19 20 21 19 19 21 23 21 22
36 34 31 29 27 25 23 23 22 22 20 19 19 18 18 17 18 19 20 21 23 23
34 31 29 26 24 22 22 21 20 20 19 18 18 15 14 15 16 18 19 21 23 24
30 27 26 24 22 22 20 19 18 19 19 18 19 16 14 14 16 18 20 21 22 22
29 27 23 21 20 21 18 18 19 19 19 19 17 16 16 20 21 22 23 24 24 22
25 24 22 20 20 20 20 19 19 18 17 17 16 18 23 25 25 23 22 21 20 21
23 24 22 21 21 21 20 19 19 17 17 16 13 25 25 26 25 23 21 20 20 21
30 31 28 23 21 20 19 18 16 15 14 14 21 25 23 25 24 23 22 21 22 22
34 31 25 20 19 18 17 16 15 14 15 17 19 22 22 25 23 21 20 21 20 20
30 28 23 20 17 15 14 14 14 16 15 13 16 20 20 23 22 20 19 19 19 20
26 19 17 15 14 15 15 15 16 15 13 19 13 16 19 22 22 21 20 20 20 24
18 15 14 14 13 14 15 14 13 11 12 12 13 14 17 20 21 21 21 21 21 22

GFSNIL_sfc_dewp_021.txt.gz
Dewpoint
50 47 45 44 39 36 34 33 33 30 28 28 28 27 27 27 26 23 25 22 24 25
46 44 42 41 36 34 32 33 30 27 27 26 26 25 25 25 20 21 23 23 23 24
44 43 40 36 33 33 31 29 28 26 24 23 23 22 23 21 20 19 22 23 22 22
43 39 36 34 33 33 30 28 26 26 25 23 20 19 20 20 19 19 20 21 22 23
39 36 35 32 30 29 27 27 25 25 22 19 19 17 16 16 17 18 19 20 22 23
36 35 30 28 27 27 25 23 24 20 19 18 19 16 15 15 17 19 20 21 22 22
34 29 26 27 24 25 24 22 19 19 19 20 18 17 20 23 24 23 23 23 23 22
29 29 27 28 26 26 26 22 19 18 18 18 19 19 25 26 25 24 23 22 20 21
27 28 29 29 28 27 20 19 18 17 17 15 20 29 29 27 25 24 22 21 21 21
29 31 33 29 26 24 21 18 17 16 16 19 25 28 27 27 24 23 22 21 21 21
33 33 33 33 32 30 26 24 22 15 16 20 24 27 25 27 22 21 20 21 20 19
36 35 34 32 31 30 28 19 15 17 16 18 22 23 23 24 21 21 21 20 21 22
34 33 30 27 20 15 16 16 17 15 14 19 13 19 19 21 22 21 21 21 22 26
29 23 20 16 16 15 15 14 12 11 12 12 14 14 16 19 20 21 21 22 21 22

GFSNIL_sfc_dewp_024.txt.gz
Dewpoint
57 53 52 50 47 43 39 40 40 37 32 32 31 28 28 27 27 24 24 22 24 25
50 50 49 47 45 42 41 39 36 33 33 33 32 29 26 27 24 23 24 23 24 25
49 49 48 46 44 42 38 35 32 32 32 32 30 26 26 23 21 21 23 24 23 23
48 46 46 44 42 38 35 31 31 31 31 30 27 24 22 22 20 19 20 22 23 22
46 45 44 41 38 34 31 31 30 29 29 30 26 23 22 20 19 19 20 20 23 24
43 43 41 39 34 31 30 30 30 28 27 21 21 18 17 17 17 19 20 21 22 22
43 42 37 34 33 30 31 31 31 31 28 24 21 18 19 22 23 23 23 23 22 21
35 33 30 30 30 30 30 28 27 29 27 26 26 25 26 25 24 23 22 22 21 21
30 31 32 32 30 29 30 30 29 26 23 25 27 32 31 26 24 23 22 21 21 21
32 31 30 30 30 29 30 30 27 25 21 26 28 30 29 28 23 21 21 21 21 20
33 33 34 34 33 32 31 30 30 29 29 30 29 29 28 26 21 21 20 21 20 20
36 35 35 34 33 33 33 32 31 29 25 26 24 25 25 23 21 21 21 21 21 23
35 35 34 34 33 33 31 26 20 16 15 21 17 23 20 24 21 19 20 21 22 25
34 32 31 29 26 21 17 15 13 12 12 13 13 14 17 18 20 19 21 21 21 21

GFSNIL_sfc_dewp_027.txt.gz
Dewpoint
59 57 55 53 53 51 48 46 43 42 40 39 37 33 31 31 28 25 26 23 25 25
59 54 54 52 52 51 48 44 42 41 37 37 35 33 32 31 26 25 25 25 25 25
56 53 52 49 48 45 44 42 39 38 36 35 34 32 30 27 23 24 25 25 24 24
50 49 48 47 45 42 42 41 39 37 36 33 31 28 28 29 26 25 24 24 23 23
47 47 46 47 43 41 40 38 37 35 32 31 30 30 28 26 26 25 24 25 27 25
45 45 45 44 42 40 38 38 36 32 31 29 28 28 29 30 26 23 22 22 21 22
44 44 43 41 39 37 36 34 32 28 29 28 29 30 30 29 27 26 24 24 23 22
41 40 40 36 35 35 35 33 31 32 32 32 32 30 30 28 26 24 22 22 21 22
34 34 33 31 31 32 31 32 33 33 32 33 34 36 34 28 23 22 22 22 20 21
33 32 32 32 33 33 33 33 32 32 33 34 34 34 33 29 24 21 21 21 21 19
34 34 35 35 34 33 33 32 32 32 33 33 34 36 35 30 23 21 21 21 20 20
37 36 35 34 33 33 33 33 33 33 33 33 33 34 32 24 20 20 20 21 21 23
36 35 34 34 34 34 33 32 33 31 31 32 26 27 25 24 20 19 19 21 21 24
35 34 34 33 33 32 30 27 20 15 15 13 15 15 18 20 20 19 21 21 21 21

GFSNIL_sfc_dewp_030.txt.gz
Dewpoint
61 59 57 56 57 55 54 52 50 45 45 43 42 40 39 39 36 32 33 26 26 27
56 56 55 54 55 55 54 52 46 46 45 43 41 38 37 34 32 32 32 29 26 27
53 57 54 51 52 52 50 47 46 44 42 42 39 35 33 29 28 28 29 29 26 25
52 55 51 50 49 47 45 44 43 42 41 39 37 33 30 28 27 26 27 27 27 25
52 48 49 49 45 44 42 41 41 39 38 35 32 29 28 27 30 31 30 29 30 28
49 48 47 46 43 42 41 40 40 38 34 32 31 30 29 30 31 31 32 32 30 26
46 46 45 43 40 39 39 37 35 33 32 32 32 32 33 32 32 31 30 30 29 27
42 43 40 38 36 35 34 32 32 33 33 34 34 34 34 33 32 32 29 28 26 25
35 35 36 35 34 34 33 34 35 35 35 35 35 37 35 31 29 29 28 29 27 24
32 32 33 34 34 35 34 35 35 36 35 36 36 37 36 34 31 30 29 27 23 21
35 35 35 35 34 34 34 34 34 34 34 35 37 38 37 35 30 29 28 25 23 23
36 35 34 34 33 33 33 33 33 33 33 32 33 37 33 29 24 21 21 21 22 23
35 34 33 33 32 33 33 32 32 32 32 35 33 35 33 24 20 19 19 21 21 24
35 34 33 33 33 32 31 30 30 28 23 23 18 19 22 27 20 19 21 21 20 21

GFSNIL_sfc_dewp_033.txt.gz
Dewpoint
49 60 61 60 59 59 58 57 57 55 54 52 49 48 46 45 44 41 39 37 34 33
47 53 57 58 58 59 58 57 56 54 52 50 48 46 45 44 41 39 37 37 35 32
49 50 55 56 57 57 56 54 51 50 49 48 46 45 44 42 38 35 35 33 30 29
50 52 54 53 54 54 52 50 48 47 46 45 43 42 42 40 36 32 29 29 28 28
50 51 50 51 50 48 47 45 45 44 43 41 40 39 37 34 32 30 30 32 33 32
48 49 48 48 45 45 43 43 42 41 39 37 35 32 30 30 32 33 33 34 33 31
46 47 46 44 42 42 42 41 40 37 34 33 31 31 32 34 34 33 33 33 32 32
41 41 39 38 38 37 37 35 35 34 34 35 35 35 34 34 33 33 33 32 32 32
34 35 36 35 36 36 35 35 35 35 36 37 38 39 38 34 31 30 30 30 31 31
34 35 35 35 35 35 36 37 37 37 38 37 37 38 38 35 32 32 31 31 30 30
35 35 35 35 35 35 35 35 35 36 36 36 38 39 38 36 32 31 30 30 29 29
35 34 34 34 34 34 34 33 33 33 33 33 34 37 36 31 29 28 27 28 25 23
35 34 33 33 32 33 33 32 33 32 32 35 33 33 32 28 20 21 20 21 21 23
35 34 33 32 32 32 32 31 30 30 30 30 30 32 30 25 20 19 21 21 20 20

GFSNIL_sfc_dewp_036.txt.gz
Dewpoint
44 45 49 57 58 58 57 59 60 59 59 59 58 57 56 54 52 49 47 44 41 38
46 46 47 51 55 57 57 58 59 59 58 59 57 56 55 54 52 51 49 46 42 36
48 48 50 51 53 56 56 57 57 58 57 57 55 53 52 51 50 48 47 44 38 34
48 50 51 52 52 52 54 55 55 54 54 53 51 49 49 48 45 43 40 38 37 35
48 49 51 51 51 51 51 51 51 49 49 49 48 46 45 45 43 39 37 37 35 31
47 48 49 49 48 47 47 46 45 45 45 45 44 43 42 39 38 34 34 34 34 34
44 46 45 44 44 44 44 43 42 41 40 38 38 35 33 35 36 36 36 35 35 36
39 40 40 39 39 38 37 37 36 36 35 35 35 34 35 35 35 35 35 34 33 34
37 37 37 37 37 37 37 37 37 37 37 38 37 38 38 35 35 34 33 32 32 33
36 36 36 36 36 37 37 38 38 38 38 38 39 40 39 37 34 33 32 32 32 33
36 35 35 35 35 35 35 36 36 36 37 38 38 39 38 36 32 32 32 32 31 30
35 35 35 34 34 34 34 33 33 34 34 33 34 37 36 33 31 29 28 28 28 25
36 35 33 33 33 34 33 33 33 32 32 35 33 33 31 26 26 25 22 21 21 23
35 35 34 34 34 34 34 33 32 32 32 32 33 31 27 23 20 19 20 19 17 18

GFSNIL_sfc_dewp_039.txt.gz
Dewpoint
43 44 44 44 48 54 55 55 58 61 60 61 61 60 59 58 58 56 54 52 49 45
44 46 47 47 47 49 53 55 55 58 59 59 60 59 59 58 57 54 53 51 50 48
45 47 48 49 49 51 53 54 55 57 58 58 58 58 57 56 55 53 52 51 50 46
45 46 49 50 51 51 51 52 54 54 55 55 56 55 54 53 52 52 50 47 44 40
45 47 48 49 49 49 50 50 50 49 50 50 51 50 50 49 47 48 43 42 40 38
44 46 46 45 46 46 47 47 46 46 45 45 45 45 46 44 43 43 41 39 37 35
41 42 42 41 41 41 42 42 40 39 37 38 36 36 37 37 37 37 37 37 36 36
39 39 39 39 39 39 39 38 38 37 36 35 36 36 36 36 36 35 35 35 35 35
37 38 38 38 38 38 38 38 38 37 37 37 37 38 38 37 36 35 34 33 34 35
36 36 37 37 37 37 38 38 38 39 39 39 39 40 39 37 34 34 33 32 32 33
35 35 36 36 36 36 35 35 35 34 35 36 38 39 38 36 32 32 32 32 32 32
35 35 35 35 35 35 34 33 33 33 33 33 34 37 36 33 32 31 31 31 30 27
34 35 34 34 33 35 34 33 33 32 32 33 33 34 32 30 27 26 22 22 23 22
35 35 35 34 34 34 33 32 32 32 32 33 32 29 27 24 21 20 19 18 17 20

GFSNIL_sfc_dewp_042.txt.gz
Dewpoint
45 46 45 46 46 47 50 54 56 60 60 60 60 61 61 60 59 57 55 54 51 48
44 46 47 47 48 48 50 54 54 55 59 58 60 60 60 60 59 58 56 55 53 49
44 46 48 49 50 51 51 52 52 54 54 55 58 59 58 57 57 55 54 52 51 50
44 46 48 50 49 49 49 50 50 51 51 52 53 54 54 53 52 52 51 49 48 43
44 46 46 46 46 48 47 48 47 47 47 47 48 49 49 49 48 49 46 43 42 40
41 42 42 42 41 42 43 43 41 40 40 40 41 43 42 42 43 42 42 41 39 39
40 40 40 40 40 40 39 38 37 36 36 36 36 37 38 38 37 37 37 37 37 37
39 38 38 38 39 39 39 38 38 37 37 37 37 37 37 36 36 36 35 36 36 36
37 37 38 38 38 38 38 39 39 38 38 38 38 39 38 36 35 34 34 33 33 34
36 35 36 36 36 36 36 36 36 37 38 38 38 39 38 37 33 33 32 32 32 33
35 35 35 36 35 35 35 34 34 34 35 36 37 38 37 35 31 31 32 32 32 31
34 35 35 35 34 34 33 33 33 33 33 33 34 36 35 31 28 29 30 31 31 31
36 35 34 34 33 34 32 32 32 32 32 32 28 31 28 29 29 28 27 25 24 22
35 35 34 34 33 33 31 29 23 28 31 31 27 27 29 26 23 20 19 18 18 23

GFSNIL_sfc_dewp_045.txt.gz
Dewpoint
44 46 47 47 47 48 50 53 55 56 59 59 59 59 61 59 58 57 56 55 52 51
43 45 47 49 50 51 51 51 52 53 54 57 58 58 58 59 59 57 55 55 54 52
44 46 49 49 48 49 49 50 50 50 51 52 53 55 56 57 55 56 55 54 53 50
44 46 46 46 47 47 48 47 47 48 48 48 49 50 50 51 52 52 51 50 50 46
41 41 41 41 41 43 42 40 39 39 40 40 43 44 47 47 47 47 45 45 43 41
39 39 39 40 40 39 39 37 37 36 36 36 38 39 40 40 40 41 41 41 40 39
38 38 38 39 39 39 38 37 37 36 36 37 37 37 37 37 37 37 37 37 37 37
38 38 38 38 38 38 39 38 38 38 38 38 38 37 35 35 35 35 36 36 36 37
37 36 37 37 37 38 38 38 38 38 38 37 37 38 38 35 34 34 34 33 34 35
36 36 36 36 36 36 36 36 35 36 37 37 37 38 38 37 33 33 32 33 33 33
36 36 36 36 36 35 35 34 34 34 35 36 37 38 36 35 28 29 30 31 29 31
36 35 35 35 34 34 33 32 32 33 33 33 34 34 33 29 24 25 26 28 29 28
36 35 34 34 33 33 33 32 32 31 26 30 23 28 28 28 27 24 25 25 22 24
35 34 34 33 33 32 26 23 27 29 30 26 25 27 29 26 22 19 18 18 20 24

GFSNIL_sfc_dewp_048.txt.gz
Dewpoint
43 44 47 48 49 50 50 51 52 53 54 56 57 57 58 58 57 58 57 57 54 53
44 45 48 48 48 49 49 50 50 50 51 52 53 55 56 58 57 55 55 54 55 53
44 48 48 47 46 47 47 47 47 47 48 48 50 51 52 54 54 53 54 54 54 53
42 43 43 42 43 44 41 40 40 42 43 44 45 46 47 47 47 48 49 48 49 47
40 40 40 40 39 39 38 37 37 37 37 38 40 40 42 43 43 44 44 43 43 41
38 39 38 39 39 38 37 37 36 37 37 37 37 37 38 39 39 39 39 39 40 39
37 38 38 38 38 39 38 37 37 37 38 38 36 36 36 36 35 36 37 37 37 37
38 38 38 38 38 38 38 38 38 37 37 37 37 36 34 34 34 34 35 36 37 38
37 37 37 37 37 37 37 37 37 37 36 37 36 38 38 35 34 34 34 33 33 35
36 36 37 37 37 36 36 36 36 36 37 37 37 38 37 36 33 33 32 31 29 31
36 36 36 36 35 35 34 34 34 34 35 36 36 37 36 34 26 24 22 23 22 22
36 36 35 34 34 33 32 32 33 33 33 33 28 31 31 27 19 22 22 25 26 25
36 35 34 33 33 33 32 32 29 24 21 29 20 29 29 26 24 22 22 20 19 27
35 34 33 33 32 29 28 29 29 29 30 23 24 26 27 26 22 19 19 19 21 24

GFSNIL_sfc_dewp_051.txt.gz
Dewpoint
44 45 47 48 49 49 49 50 50 50 51 52 54 56 56 56 56 56 57 56 54 53
45 46 47 46 47 47 47 48 48 48 48 49 51 52 56 58 57 56 55 56 55 53
43 45 45 45 45 44 43 42 43 45 45 46 46 48 49 50 51 52 51 51 52 52
41 41 40 41 41 39 38 38 38 39 40 41 41 42 44 44 45 46 46 45 45 43
39 39 39 39 38 38 37 37 37 37 37 38 38 39 39 40 40 40 40 42 42 40
38 38 38 38 38 37 37 37 37 37 37 36 36 36 36 37 37 38 38 37 37 37
37 37 37 38 38 38 38 37 37 37 37 37 35 35 35 35 34 35 36 37 37 36
38 38 38 37 38 38 37 37 36 36 36 36 36 37 34 34 35 35 36 36 36 38
37 37 37 37 37 37 36 37 37 37 35 36 35 38 37 36 35 34 34 33 33 34
36 37 37 37 36 35 35 36 36 36 37 37 36 37 37 35 33 32 28 26 25 30
36 36 37 36 35 34 34 34 34 34 34 33 34 35 35 33 23 23 25 24 18 19
36 36 36 34 33 33 33 33 33 32 29 24 25 31 30 26 18 21 21 23 22 22
37 36 34 33 33 33 32 31 27 23 20 28 19 29 27 24 21 18 18 18 20 27
35 34 33 33 32 31 29 29 27 25 22 21 24 25 27 28 22 19 19 20 22 24

GFSNIL_sfc_dewp_054.txt.gz
Dewpoint
44 45 47 48 48 48 48 49 49 48 49 49 51 53 57 58 58 57 57 57 56 55
45 45 46 46 46 46 45 46 45 46 46 47 48 49 54 55 55 56 55 55 55 54
42 43 43 44 43 41 40 40 40 41 42 42 43 45 47 49 50 50 49 50 48 47
40 40 40 40 39 38 37 38 38 39 39 39 39 40 42 42 43 45 44 43 43 42
39 39 38 38 38 37 37 37 37 37 37 37 37 37 38 38 39 39 38 39 40 39
37 37 37 37 37 37 37 37 37 37 36 35 35 35 35 35 36 36 36 35 35 35
36 37 36 37 37 37 37 36 36 36 37 36 35 35 35 35 35 36 36 37 38 37
37 37 37 38 38 37 37 36 36 36 37 36 37 36 35 35 36 36 35 35 36 37
37 38 37 37 37 37 36 37 37 37 36 36 36 38 37 36 34 33 32 32 32 33
37 37 37 36 36 35 36 36 36 37 36 35 36 37 36 35 31 25 23 24 24 28
37 37 37 36 35 34 35 35 34 33 30 31 33 35 34 31 20 24 25 19 16 17
37 36 36 34 34 34 33 33 32 30 25 23 24 30 30 25 17 21 20 21 23 24
37 36 34 34 33 33 33 32 28 24 22 27 19 28 26 23 20 17 17 19 21 27
36 35 33 33 33 32 29 24 20 21 20 20 23 24 27 28 21 19 19 20 22 23

GFSNIL_sfc_dewp_057.txt.gz
Dewpoint
45 45 47 49 50 49 49 49 48 49 49 49 50 52 56 58 59 58 58 58 58 57
47 47 48 47 48 47 45 44 44 45 46 46 47 50 53 54 55 53 53 54 54 54
44 45 45 46 43 41 40 40 41 42 42 42 44 46 49 50 50 49 49 49 49 48
41 41 41 40 39 39 38 39 39 39 40 40 40 42 44 45 45 44 44 44 44 43
40 40 39 38 38 38 38 38 38 37 37 38 38 38 40 40 40 40 39 40 40 40
38 38 38 38 38 38 38 38 38 37 36 36 36 36 37 38 38 38 37 37 37 37
38 38 38 38 38 38 37 37 37 37 37 36 36 36 36 37 37 37 38 39 39 37
38 38 38 38 38 37 37 37 36 36 37 37 37 36 36 36 36 36 35 35 36 36
38 38 38 38 37 37 37 37 37 36 36 36 36 37 38 35 34 33 34 34 33 32
37 37 38 37 36 36 37 37 37 36 35 36 36 37 36 34 29 29 30 31 32 31
37 37 37 36 36 36 36 35 34 33 33 34 35 35 33 30 28 27 27 27 26 29
37 37 36 35 35 35 35 34 32 30 30 30 32 31 30 27 26 25 24 24 26 27
37 36 35 34 34 34 33 33 30 29 27 30 28 28 27 24 18 17 17 20 22 27
37 36 34 34 33 33 32 29 28 28 25 25 27 26 30 27 19 19 19 20 21 23

GFSNIL_sfc_dewp_060.txt.gz
Dewpoint
45 46 46 48 48 49 49 49 49 49 49 50 50 51 54 55 58 59 60 59 59 58
46 46 47 49 49 49 47 44 45 46 46 47 48 50 52 54 55 55 55 54 54 53
45 47 48 48 47 45 43 43 43 44 44 44 46 48 50 51 50 51 51 51 50 49
43 44 45 45 44 42 41 41 41 42 42 42 43 45 47 47 46 46 46 46 46 45
42 42 42 42 41 40 40 40 40 39 40 40 41 42 43 43 43 43 43 42 43 42
40 41 41 40 40 40 40 40 39 38 38 38 39 40 40 40 40 40 39 39 39 39
39 40 40 40 39 39 39 39 39 39 38 37 37 38 39 39 39 39 39 39 39 38
39 39 39 39 39 38 38 38 38 37 38 37 37 37 38 38 38 37 37 37 37 38
39 39 39 39 38 38 38 37 37 37 37 36 37 39 38 37 36 36 35 35 35 34
38 38 39 38 37 37 38 38 37 37 37 36 37 37 37 35 34 35 35 35 35 31
38 38 38 37 37 37 37 37 36 36 37 36 35 36 33 31 33 33 32 32 33 34
38 38 37 36 36 36 36 35 35 34 34 36 35 32 29 31 33 30 29 28 27 26
38 37 37 36 35 36 35 34 33 34 34 32 35 30 28 25 19 19 16 19 23 27
38 37 36 35 35 35 34 33 33 33 32 31 30 27 27 24 17 16 16 17 18 21

GFSNIL_sfc_dewp_063.txt.gz
Dewpoint
46 46 46 47 47 47 47 48 50 49 49 49 49 50 51 54 56 57 58 59 59 59
45 46 46 47 48 48 48 47 45 46 47 47 47 48 49 52 53 55 55 54 53 52
45 46 47 47 47 47 45 44 44 44 45 45 46 47 49 50 51 51 51 52 51 50
44 44 45 45 45 45 43 42 42 42 43 43 43 44 47 48 47 47 47 47 47 46
43 43 43 43 43 42 42 41 41 40 40 41 41 42 43 44 45 45 44 44 45 44
41 42 41 41 41 41 41 41 40 39 39 39 39 40 41 41 41 41 41 41 40 40
40 40 40 40 40 40 40 40 40 39 38 38 38 39 40 40 40 40 40 39 39 38
39 40 40 40 40 39 39 39 39 38 38 38 38 38 39 39 39 39 38 37 37 39
39 39 40 39 39 39 38 38 38 38 37 37 37 39 39 38 38 37 36 35 35 35
39 39 39 39 39 38 38 38 38 37 37 37 36 39 38 37 37 36 36 35 36 32
39 38 38 39 38 38 38 38 38 38 38 37 36 36 35 34 35 33 33 33 33 34
38 38 38 38 38 37 37 36 36 37 37 37 36 33 30 31 33 31 30 30 28 27
38 38 38 38 36 36 36 35 35 34 35 34 36 30 28 28 24 24 20 22 25 27
38 38 38 37 36 36 34 34 34 34 33 33 32 29 29 25 18 17 17 18 20 22

GFSNIL_sfc_dewp_066.txt.gz
Dewpoint
47 47 46 47 47 47 48 49 49 49 49 48 48 49 50 52 53 54 55 54 54 56
46 46 46 48 48 48 48 45 44 46 46 46 46 47 48 50 51 53 53 53 53 52
46 47 47 47 47 47 45 44 44 44 44 44 45 46 47 49 50 50 50 51 50 50
45 46 46 46 46 45 43 42 42 42 42 42 42 43 45 47 47 48 47 47 47 46
44 43 44 44 43 43 42 41 41 40 40 40 41 41 42 43 43 45 45 45 45 44
42 42 42 42 42 41 41 41 40 39 39 39 39 40 40 40 41 40 40 40 39 39
41 41 40 41 40 40 40 40 40 39 39 38 38 39 39 40 39 39 39 39 38 38
40 40 40 40 40 40 39 39 39 38 39 39 38 38 39 40 40 39 38 38 38 39
40 39 39 39 39 38 38 38 38 38 38 38 37 39 40 39 38 38 36 35 34 35
39 39 39 39 39 37 37 38 38 38 38 37 38 40 39 39 37 36 35 34 31 30
39 39 39 39 38 37 39 38 38 38 37 37 37 38 37 37 34 33 32 32 31 29
39 38 38 38 37 37 38 37 37 37 37 36 36 35 34 31 29 29 29 29 29 30
39 38 38 37 36 37 37 35 35 34 34 36 33 33 30 29 28 27 25 24 27 27
38 38 38 35 36 36 35 34 33 33 33 31 32 30 30 27 18 18 17 19 20 24

GFSNIL_sfc_dewp_069.txt.gz
Dewpoint
48 48 49 48 47 47 48 50 50 49 49 48 48 48 49 50 51 52 53 52 53 54
46 46 47 47 48 48 48 46 46 46 46 46 46 47 47 48 50 50 51 52 50 52
46 46 47 48 48 47 45 44 44 44 44 44 44 45 46 47 48 48 49 49 50 50
46 47 47 47 46 45 44 43 43 43 42 42 42 43 43 45 46 46 46 46 47 47
45 45 45 45 44 43 42 42 41 41 41 41 41 41 41 43 43 45 46 45 46 44
43 43 43 43 42 42 41 41 40 40 39 39 40 40 40 41 41 40 40 40 40 41
42 41 41 41 41 41 41 40 40 39 39 38 38 39 39 40 39 39 39 38 38 38
40 40 40 40 40 40 39 39 39 39 39 39 38 38 39 40 40 39 39 39 38 38
40 40 39 39 39 39 38 38 38 38 38 38 37 39 40 40 39 38 37 36 35 36
39 39 39 39 38 37 36 36 36 37 38 38 39 40 40 40 38 37 35 33 31 30
39 39 39 38 37 38 35 35 35 37 38 37 38 40 39 39 35 34 33 32 28 27
39 38 38 37 37 37 35 35 37 38 37 36 37 37 37 34 31 28 27 29 30 31
39 38 37 36 37 36 36 36 36 34 35 37 35 36 33 30 27 25 25 27 27 31
38 37 36 36 37 35 35 35 34 34 34 34 33 32 32 31 25 23 21 21 23 25

GFSNIL_sfc_dewp_072.txt.gz
Dewpoint
58 55 54 54 53 53 52 53 53 51 50 49 49 49 49 49 50 50 51 51 51 52
51 51 52 52 50 50 50 49 49 49 48 47 47 46 47 48 48 49 50 51 51 52
46 46 47 47 47 48 46 45 45 45 45 45 45 45 46 46 47 47 48 49 48 47
46 47 47 47 47 46 44 44 44 44 43 43 43 43 43 44 46 46 46 45 45 46
46 46 46 46 46 44 43 42 42 42 41 41 41 41 41 42 45 44 44 45 44 44
44 44 44 44 43 43 42 41 40 40 40 40 40 40 40 40 41 40 40 41 42 41
42 42 42 42 41 41 41 40 40 39 39 39 39 39 39 39 38 38 38 38 38 39
42 41 41 41 40 40 40 40 39 39 38 38 38 38 38 39 39 39 39 39 38 38
40 40 40 39 39 38 38 38 38 37 38 38 38 40 40 40 40 39 38 37 36 37
40 39 39 39 38 37 36 36 36 36 37 37 38 40 41 41 39 38 37 35 34 33
39 39 38 38 37 35 35 35 34 35 36 36 38 41 40 40 36 34 34 33 31 26
39 38 38 37 36 35 35 34 34 35 35 37 37 40 40 37 34 33 33 31 28 27
39 38 37 36 35 35 37 35 36 34 35 37 36 38 38 35 31 29 27 29 29 34
39 38 37 35 35 34 37 36 35 34 34 35 35 35 36 33 26 24 24 25 26 27

GFSNIL_sfc_dewp_075.txt.gz
Dewpoint
60 60 59 58 58 57 56 55 54 53 51 50 50 50 49 49 49 49 49 49 50 51
55 56 54 54 55 52 52 53 52 50 48 48 47 47 47 47 47 47 48 49 49 50
47 50 52 51 50 49 49 50 49 47 46 46 45 45 45 45 46 48 48 48 47 46
46 47 47 47 47 46 45 45 45 45 44 44 43 43 43 43 44 45 45 45 45 45
46 46 47 47 46 45 44 44 43 43 42 42 41 41 41 41 43 44 44 44 44 44
44 44 45 45 44 43 42 42 41 41 41 40 40 40 40 40 41 40 40 40 42 41
43 43 43 43 42 42 41 40 40 40 39 39 39 38 38 38 38 37 37 37 37 39
42 41 41 41 41 40 40 40 39 38 38 38 38 38 37 38 37 38 39 39 38 39
41 41 40 40 39 39 38 38 38 37 37 37 38 40 41 40 40 40 39 38 38 38
40 40 39 39 38 37 36 36 36 36 36 36 36 39 41 41 40 39 38 37 35 34
40 39 38 37 37 35 35 35 34 34 35 35 36 40 41 41 36 35 34 34 33 33
39 38 37 37 36 35 34 34 34 34 34 34 34 39 41 38 34 34 34 32 30 28
39 38 37 36 35 34 34 34 33 34 34 36 35 39 40 38 34 33 32 30 29 31
39 38 37 35 34 34 34 34 35 35 35 35 37 36 39 38 30 30 28 27 26 27

GFSNIL_sfc_dewp_078.txt.gz
Dewpoint
59 59 59 59 59 59 59 58 57 56 54 52 51 51 50 50 50 49 49 49 49 50
53 56 56 56 57 57 57 56 55 53 50 50 49 48 48 47 47 47 47 47 48 49
46 50 54 53 53 53 52 52 50 49 48 47 47 46 46 45 46 46 47 48 48 47
46 47 49 50 49 48 48 50 48 47 45 45 44 44 44 44 44 44 45 44 44 45
45 46 46 46 46 46 46 45 45 44 43 43 42 42 41 41 41 43 43 43 43 43
44 44 44 45 45 44 43 43 43 42 41 41 41 40 39 39 39 39 39 39 40 41
43 43 43 43 43 42 42 41 40 40 40 39 39 38 38 38 37 37 37 37 37 38
41 41 41 41 41 41 40 40 39 38 38 38 37 38 37 37 37 37 38 39 38 39
41 41 40 40 39 39 38 38 37 37 37 37 38 40 41 40 37 38 40 39 38 40
41 40 39 39 38 37 37 36 36 36 36 36 36 40 41 41 38 37 38 37 36 36
40 39 39 38 37 36 35 35 35 35 35 35 36 40 41 40 37 34 34 35 35 34
40 39 37 37 36 35 34 34 34 34 34 34 34 40 40 39 34 34 34 33 33 32
39 39 38 37 35 34 34 34 33 34 34 35 32 38 40 39 35 34 34 33 30 34
39 39 38 36 34 34 34 33 33 34 35 36 35 34 40 40 34 33 32 31 30 29

GFSNIL_sfc_dewp_081.txt.gz
Dewpoint
60 61 61 61 61 60 60 60 60 60 59 57 57 56 55 54 53 53 53 52 52 52
52 57 59 59 60 60 59 58 59 59 57 55 53 51 50 50 49 50 50 50 50 50
46 48 54 56 56 56 56 56 55 52 50 49 48 48 48 47 47 47 49 49 50 50
46 47 49 52 52 53 52 52 51 50 48 47 46 46 46 46 46 46 47 47 48 48
46 47 47 48 49 48 49 50 50 48 46 45 44 43 43 43 43 44 45 45 45 45
45 46 46 46 46 46 46 46 45 44 43 42 42 41 41 41 41 41 41 41 42 44
44 44 45 45 44 44 43 43 42 42 41 41 40 40 40 40 39 39 39 40 40 40
43 43 43 43 43 42 42 41 41 40 40 40 39 39 39 39 39 39 39 39 39 40
42 43 43 42 42 41 41 40 40 39 39 39 38 41 41 40 39 39 39 40 39 40
41 42 42 41 41 40 40 39 39 39 39 38 39 42 43 43 40 40 40 40 40 38
41 41 41 40 40 39 39 39 39 38 38 39 38 41 42 42 41 39 37 37 37 37
40 40 40 40 40 39 38 38 38 37 37 38 38 41 42 40 37 37 36 37 36 35
40 40 40 40 39 38 37 37 37 37 37 37 37 40 41 40 37 35 35 34 33 36
39 39 40 39 38 37 37 37 36 36 36 36 36 36 40 42 36 35 34 34 33 31

GFSNIL_sfc_dewp_084.txt.gz
Dewpoint
62 62 61 61 62 62 61 62 62 62 62 62 62 60 59 59 59 58 57 56 55 54
53 59 61 62 62 62 62 62 62 62 62 61 59 58 58 56 53 53 53 53 53 51
46 48 53 57 59 60 60 60 60 60 60 58 57 55 54 51 50 50 50 50 50 50
46 47 48 51 54 56 57 57 58 57 55 53 52 50 49 48 48 47 48 48 49 49
46 47 47 48 50 51 53 54 54 53 51 49 48 47 46 46 45 45 46 46 47 47
45 46 46 47 47 48 49 51 51 50 49 47 45 44 44 43 44 44 44 44 44 45
42 45 46 46 46 46 46 47 47 47 45 44 43 43 42 42 42 42 42 42 42 43
41 43 45 45 45 45 45 44 44 44 43 42 42 41 42 41 41 41 41 41 41 42
40 42 44 45 45 44 44 43 43 42 42 42 40 42 43 42 41 40 40 40 40 40
40 41 42 43 44 44 44 43 42 42 41 41 40 43 43 42 41 41 41 42 42 41
40 40 42 43 43 44 44 43 43 42 41 41 41 44 44 43 42 42 40 40 41 41
40 40 41 42 43 44 43 43 43 42 41 42 41 43 44 43 42 40 39 39 40 39
39 40 40 42 43 43 42 43 43 41 43 41 41 42 43 42 39 38 37 37 37 38
38 39 40 41 42 42 41 41 41 40 40 40 40 39 42 42 38 37 36 35 35 35

GFSNIL_sfc_dewp_087.txt.gz
Dewpoint
61 62 60 60 60 60 60 60 61 62 62 63 62 62 61 60 59 59 59 59 59 57
59 61 61 61 61 61 61 62 61 62 62 62 62 61 61 59 59 58 58 58 56 54
47 48 54 59 61 61 61 62 62 61 61 62 61 60 59 57 56 55 54 53 52 51
47 47 48 50 53 56 58 59 59 60 61 59 58 58 57 55 53 52 51 51 50 50
46 47 48 47 49 51 53 56 57 57 57 56 55 55 54 52 50 49 48 48 49 49
43 45 46 47 47 48 50 52 54 54 53 52 51 50 49 47 47 47 47 47 47 47
41 41 45 46 46 46 47 49 50 51 51 49 47 47 45 45 45 46 45 45 45 45
40 41 42 45 46 46 46 46 47 47 46 45 44 43 44 44 44 43 43 43 43 44
39 40 42 42 45 46 45 45 45 45 44 44 42 44 45 44 42 42 42 41 42 42
39 40 41 42 42 44 45 46 45 44 43 43 42 44 45 44 43 43 42 42 42 41
39 40 40 41 43 43 45 46 45 45 44 43 42 44 44 44 43 43 43 42 42 42
37 38 40 41 42 43 44 45 45 45 44 43 43 44 44 43 43 40 39 39 39 40
36 37 38 40 40 42 43 43 45 44 44 44 43 44 45 44 41 39 38 39 39 40
35 36 37 39 40 41 42 43 42 43 42 42 42 42 44 44 40 38 38 37 37 37

GFSNIL_sfc_dewp_090.txt.gz
Dewpoint
60 60 60 59 59 60 59 59 59 61 61 62 62 62 61 60 59 59 58 58 58 58
59 59 60 60 59 59 60 60 60 61 61 60 60 61 61 60 59 59 58 58 58 57
48 52 54 58 60 60 60 60 61 60 61 61 60 61 61 60 59 58 57 56 55 53
47 47 48 48 51 55 57 58 60 60 60 60 61 61 60 58 57 56 55 53 53 52
45 46 46 47 48 49 51 54 56 57 59 59 59 59 58 56 55 55 53 52 50 50
41 41 44 46 47 47 48 50 53 54 55 55 55 56 56 55 53 52 50 49 49 49
40 41 41 44 46 46 46 47 49 51 52 51 50 50 50 48 48 47 47 47 47 47
40 40 41 42 44 46 45 45 46 48 47 46 46 45 46 46 46 46 46 47 46 46
40 40 41 41 42 43 45 45 45 45 45 44 43 45 46 45 45 44 44 43 43 43
39 40 40 41 41 42 43 45 44 44 44 43 43 45 46 46 43 43 43 42 42 41
37 38 39 40 41 41 42 43 43 43 43 42 43 45 45 45 41 41 39 38 39 39
36 36 37 38 38 40 41 42 43 44 43 42 41 44 45 43 38 38 38 39 40 39
34 35 37 37 38 39 40 41 43 43 43 43 42 44 45 43 40 39 39 39 39 41
31 32 34 35 36 38 39 41 41 42 42 42 43 42 45 45 41 39 38 38 37 39

GFSNIL_sfc_dewp_093.txt.gz
Dewpoint
60 60 59 58 58 59 60 60 60 61 60 61 62 61 61 60 60 60 60 59 59 58
54 60 59 59 58 58 60 60 60 60 60 60 61 61 61 60 59 59 59 59 58 58
50 54 55 56 58 59 59 60 60 60 60 60 60 60 60 60 59 59 59 58 57 57
46 47 48 48 51 54 57 58 58 60 60 60 60 60 60 59 59 58 58 57 57 56
41 42 44 46 47 47 48 50 53 55 57 59 59 60 60 59 59 58 56 55 55 54
40 41 41 42 45 46 46 47 49 52 53 55 56 57 58 58 57 57 56 55 55 54
39 40 41 42 42 44 46 45 46 48 50 51 52 53 54 54 53 53 53 52 52 52
40 40 41 41 41 42 43 45 45 45 47 47 47 48 48 49 49 49 48 50 50 49
38 39 40 40 41 41 42 43 44 44 44 45 45 45 47 47 47 47 46 46 46 47
37 37 38 39 40 40 41 41 42 43 43 43 43 45 46 46 45 45 45 44 44 43
35 35 36 37 38 38 39 40 41 42 44 44 43 45 45 46 42 42 42 42 42 41
33 33 35 35 36 37 39 39 41 42 42 43 44 44 45 44 39 38 38 38 40 40
31 31 33 33 34 35 36 38 39 41 42 43 43 44 45 44 40 38 39 40 39 41
29 28 30 31 31 33 33 35 35 35 38 41 42 43 44 45 41 40 39 39 39 39

GFSNIL_sfc_dewp_096.txt.gz
Dewpoint
55 60 59 59 59 59 59 60 60 61 61 60 61 61 61 61 60 61 60 60 59 58
53 56 58 59 58 58 59 60 60 60 60 60 60 61 61 60 60 59 60 60 59 58
50 51 53 55 56 58 59 59 59 59 60 60 60 60 60 60 59 59 59 59 58 58
45 47 49 49 49 50 52 54 56 58 59 59 59 59 60 59 59 58 58 58 57 57
40 41 41 42 44 46 46 47 49 52 54 57 59 59 59 59 59 58 58 58 57 56
40 40 40 41 42 43 45 46 46 48 50 52 53 56 58 59 59 58 58 58 56 56
39 40 40 40 41 41 43 44 45 45 47 48 49 51 52 55 55 56 56 56 56 56
38 38 39 39 40 41 42 42 43 44 45 45 46 46 47 49 51 52 52 51 52 53
35 36 36 37 39 39 40 40 41 41 42 43 44 46 47 46 47 48 49 49 49 50
33 34 35 36 37 37 37 38 38 39 41 42 43 45 46 46 45 46 46 46 46 46
32 32 32 34 33 34 36 37 38 38 39 41 42 45 46 46 43 42 42 43 44 44
30 30 30 30 31 32 34 34 36 38 38 40 41 43 45 45 42 40 38 39 41 43
29 29 28 29 30 31 32 32 34 36 35 38 38 41 43 44 43 40 40 40 38 42
28 27 27 28 29 28 29 30 30 31 32 33 35 37 41 43 43 42 40 40 40 40

GFSNIL_sfc_dewp_099.txt.gz
Dewpoint
54 56 59 59 59 60 59 60 60 61 61 61 61 61 60 60 60 60 60 59 59 59
52 52 53 54 57 58 58 60 60 59 59 60 60 60 60 59 59 60 59 59 60 59
48 49 50 50 50 51 52 55 58 59 59 59 59 60 60 59 60 60 59 59 59 59
44 45 45 45 47 48 49 50 51 54 56 57 59 59 59 59 59 59 58 58 58 58
40 40 41 40 41 42 43 45 46 47 50 52 54 57 59 58 59 58 58 58 57 57
38 39 39 40 40 41 42 43 44 45 46 47 49 50 52 55 57 58 58 58 57 57
36 37 37 39 39 40 41 41 41 43 44 44 45 46 47 49 51 53 55 56 57 57
35 36 36 36 38 38 39 39 40 41 41 42 43 44 45 45 46 47 50 52 53 54
32 32 33 34 35 36 36 37 38 38 39 40 41 44 46 46 45 45 46 48 50 51
30 30 31 32 33 32 33 35 35 37 38 38 40 43 44 45 45 43 43 45 46 47
28 28 29 29 29 30 32 32 34 34 36 37 37 39 42 43 43 43 42 41 42 44
28 28 27 27 27 28 31 30 31 33 34 34 35 38 36 40 41 41 41 41 41 42
28 27 27 27 27 28 28 29 30 31 31 32 32 36 36 37 40 40 41 42 41 42
26 26 26 26 26 26 26 27 27 28 29 29 31 32 34 35 36 39 40 41 41 41

GFSNIL_sfc_dewp_102.txt.gz
Dewpoint
52 53 54 54 58 58 58 59 60 60 61 61 61 61 61 60 60 60 60 60 59 59
49 50 50 51 51 52 52 53 55 59 59 60 61 61 60 60 59 59 59 59 59 59
46 47 47 47 47 48 49 50 51 52 54 56 58 59 59 59 59 59 59 59 58 59
41 42 43 42 43 43 45 46 47 48 50 51 53 55 57 59 59 58 58 58 58 58
37 37 39 40 40 41 41 42 42 44 45 46 47 49 51 52 55 58 58 58 58 57
34 35 36 37 38 39 39 39 40 41 41 42 43 45 46 47 48 51 53 56 57 57
32 33 34 34 35 36 37 37 38 38 39 40 41 43 44 45 45 45 47 49 52 54
31 31 31 31 33 33 33 34 36 37 37 38 38 40 43 44 44 44 44 45 47 50
29 29 29 29 30 30 31 32 33 32 34 37 37 39 38 41 42 43 43 43 44 46
28 28 28 28 28 28 29 31 31 31 33 35 36 36 37 37 39 41 42 42 42 43
27 27 27 27 26 26 28 29 29 30 32 33 31 35 35 37 36 39 40 40 40 41
26 26 26 26 26 26 28 27 28 29 30 30 30 33 34 34 34 36 35 36 40 40
25 25 24 24 24 25 27 27 28 28 29 31 29 32 33 32 31 32 34 37 35 40
22 21 22 22 23 23 23 24 24 26 27 27 28 30 33 31 29 31 31 32 36 37

GFSNIL_sfc_dewp_105.txt.gz
Dewpoint
49 50 49 50 51 51 52 53 54 55 59 60 60 60 60 60 60 60 60 59 59 58
46 46 45 46 47 48 49 50 51 52 52 54 55 57 60 60 60 60 60 60 59 59
43 44 45 44 43 44 45 45 46 47 49 50 51 51 54 57 59 59 59 60 59 59
38 40 41 42 41 40 41 41 42 43 44 45 46 48 49 50 52 53 57 58 58 58
32 32 34 35 35 36 35 35 36 36 37 39 41 44 45 45 47 48 49 51 55 57
29 29 29 30 30 31 32 32 33 34 35 35 37 41 43 44 44 44 45 47 48 50
28 28 27 28 28 28 31 30 30 31 32 35 36 36 39 39 41 42 43 44 45 47
28 28 28 27 28 27 29 30 29 29 30 32 34 34 36 36 37 39 40 42 43 44
27 27 27 27 27 26 27 29 28 28 29 30 29 34 35 35 35 35 37 39 41 42
25 25 26 26 25 24 25 28 27 27 28 29 30 33 34 34 34 35 35 36 38 39
24 23 24 24 24 24 25 26 26 27 28 29 28 32 33 33 33 34 35 37 36 37
23 23 23 23 24 24 25 25 26 26 27 28 29 33 33 32 33 32 32 32 32 34
23 23 22 23 24 24 24 24 26 25 27 29 29 31 32 31 29 28 29 29 30 33
21 21 21 22 22 23 23 23 24 24 26 26 27 28 32 32 29 28 28 26 26 27

GFSNIL_sfc_dewp_108.txt.gz
Dewpoint
48 48 47 47 48 49 49 50 50 51 52 53 55 55 56 59 60 61 61 60 60 59
45 45 44 44 45 46 45 45 46 47 48 49 50 50 52 54 55 59 60 60 60 59
40 42 42 42 41 41 41 41 42 43 43 44 45 47 49 50 50 51 53 56 58 59
34 36 34 34 36 37 37 37 36 37 38 39 41 44 45 46 47 47 48 50 51 51
29 26 27 27 27 28 27 28 27 26 28 28 31 35 39 41 42 44 44 46 47 48
24 24 24 24 23 23 25 24 24 24 25 27 29 30 31 32 34 36 38 41 43 44
26 26 25 24 23 23 23 23 22 23 23 25 26 28 30 31 32 32 35 38 39 41
25 24 24 24 23 22 21 22 23 22 21 22 23 22 31 30 29 30 30 31 33 38
19 19 20 20 20 19 20 20 21 20 21 23 21 29 32 32 28 28 28 28 30 32
18 18 19 18 17 18 19 20 20 20 20 21 22 29 32 33 28 28 29 30 31 30
19 18 19 20 20 20 21 21 22 22 22 23 23 29 32 33 30 30 30 30 29 28
20 20 20 21 22 22 23 23 23 23 23 24 25 29 31 31 29 28 28 26 26 27
21 21 21 21 22 23 23 24 24 24 25 26 26 28 30 31 26 25 24 24 24 28
21 20 20 22 23 24 23 23 24 23 23 22 24 25 30 31 27 25 24 23 23 24

GFSNIL_sfc_dewp_111.txt.gz
Dewpoint
48 48 48 47 47 46 47 47 47 48 49 49 50 51 52 55 55 54 59 60 60 60
45 43 42 41 42 43 43 41 43 44 44 44 46 48 49 50 50 51 53 53 53 56
34 36 37 36 36 37 38 38 38 38 39 40 41 44 46 47 47 48 49 49 49 50
30 32 31 30 30 31 33 32 32 32 33 33 35 37 39 39 41 42 44 45 46 47
27 26 24 23 23 22 23 23 23 23 24 25 27 31 33 34 34 36 37 38 41 43
24 25 24 24 24 23 21 21 20 20 20 21 23 24 26 28 29 31 32 34 37 39
23 23 24 24 22 19 17 18 19 19 19 19 19 20 25 26 27 27 29 31 32 33
21 20 19 19 18 18 18 18 18 18 18 19 20 17 28 28 26 26 26 28 26 30
17 17 18 18 16 17 18 18 18 19 19 20 17 28 29 30 29 26 26 27 29 30
16 17 18 18 17 18 19 20 20 21 21 21 21 27 29 32 29 28 29 30 30 29
18 18 19 20 20 20 20 20 21 23 22 23 23 27 29 31 30 29 30 30 29 28
19 20 20 20 21 21 22 23 24 23 24 25 25 28 29 30 30 29 27 25 25 25
20 20 20 21 22 23 23 24 25 24 26 25 25 26 28 29 27 25 23 23 23 28
20 19 19 21 23 24 24 24 24 23 22 21 22 22 27 29 27 26 26 24 24 23

GFSNIL_sfc_dewp_114.txt.gz
Dewpoint
45 45 44 44 44 44 45 45 45 44 45 46 47 49 50 52 50 51 52 52 52 53
41 41 40 39 40 40 39 38 39 39 40 41 44 45 47 48 47 49 49 50 49 50
32 32 34 34 34 34 34 34 34 34 36 36 38 41 43 43 44 43 46 47 46 47
28 30 28 26 27 29 30 29 29 30 32 32 34 37 38 38 38 38 39 41 42 42
27 26 25 24 24 23 21 22 20 21 22 23 26 29 31 31 33 35 36 36 38 38
24 24 24 24 22 19 19 19 20 20 20 21 22 21 26 27 28 29 30 32 34 35
22 21 20 19 19 19 19 19 19 20 20 22 22 22 27 29 29 28 28 30 32 31
19 19 19 19 19 19 20 19 20 20 21 22 21 19 27 29 29 29 27 28 29 31
18 18 20 19 19 20 20 20 21 21 22 22 20 28 29 29 29 29 28 29 30 31
19 20 21 20 21 21 20 21 22 22 23 23 23 28 30 30 30 30 30 30 31 30
21 21 22 22 22 21 22 22 23 24 24 24 24 29 29 30 30 30 30 30 30 29
21 22 22 22 22 22 23 24 24 24 25 25 26 29 29 28 30 30 28 26 25 26
23 23 22 22 22 24 24 24 26 25 26 27 25 28 27 27 29 28 27 26 25 29
22 20 20 21 22 24 25 25 25 25 23 21 22 22 27 28 26 26 26 26 26 25

GFSNIL_sfc_dewp_117.txt.gz
Dewpoint
42 41 41 41 41 40 41 41 42 43 44 45 46 47 49 48 49 50 50 49 49 50
33 36 38 38 38 37 37 34 38 37 38 38 39 41 42 44 43 46 48 47 47 47
30 30 30 29 29 30 30 31 31 32 32 33 35 38 38 39 39 39 42 43 42 44
28 29 27 25 25 25 26 26 25 26 27 27 27 32 32 33 33 36 38 38 40 39
26 25 24 22 20 19 19 20 20 20 21 22 24 27 29 30 31 31 31 32 36 36
21 21 19 19 19 19 19 19 19 20 20 22 23 26 28 29 30 30 30 30 31 33
19 18 18 19 19 19 19 19 20 21 22 23 22 24 28 29 29 30 30 31 32 32
18 18 19 19 19 20 21 20 21 22 22 23 22 22 27 28 29 29 29 30 30 31
18 19 20 20 20 21 21 21 22 22 23 23 22 28 30 29 29 30 29 29 30 31
19 20 22 21 22 21 21 22 22 23 24 24 24 29 30 31 29 30 30 30 30 29
21 21 22 22 22 21 22 23 23 24 24 24 24 29 29 30 29 30 30 30 29 27
21 21 22 21 21 22 23 23 23 25 25 25 26 30 29 27 28 29 29 28 26 27
22 21 20 21 20 22 23 23 25 25 25 27 24 27 28 27 26 27 27 27 27 30
21 20 19 19 20 22 22 22 22 22 22 21 23 24 28 28 25 25 26 27 27 27